Вернуться в каталог

HINCUBE

АктивенНаукаSSO
NORAD 39445·PAYLOAD·🇳🇴 Norway

Запущен Nov 21, 2013 с Dombarovsky

Loading…

Ближайшие Пролёты (ближайшие 24 часа)

TLE

СвежийSource: Space-Track

Эпоха: Sep 14, 2026, 21:11 UTC

1 39445U 13066AF  26257.88297583  .00006290  00000-0  39449-3 0  9992
2 39445  97.8074 227.8651 0030531 265.6540  94.1200 15.09310508693054

Отслеживайте HINCUBE в реальном времени с AllMySat

Download on the App Store